Home   Weather   Pickering   Past weeks

Flag for Canada Past Weather in Pickering, Ontario, Canada — Yesterday and Last 2 Weeks

Now
37 °F

Overcast.


Feels Like: 32 °F
Forecast: 34 / 37 °F
Wind: 7 mph from Southwest

Location: Toronto Buttonville

Current Time: Jan 18, 2017 at 7:13:22 pm

Latest Report: Jan 18, 2017 at 6:00 pm


Visibility: 15 mi

Pressure: 29.98 "Hg

Humidity: 87%

Dew Point: 34 °F

Location of PickeringLocation

Past Weather in Pickering — Graph

°F

Pickering Temperature Yesterday

Maximum temperature yesterday: 34 °F (at 8:00 pm)
Minimum temperature yesterday: 27 °F (at 2:00 am)
Average temperature yesterday: 31 °F

High & Low Weather Summary for the Past Weeks

 TemperatureHumidityPressure
High46 °F (Jan 12, 3:00 am)100% (Jan 3, 6:00 pm)30.81 "Hg (Jan 3, 6:00 pm)
Low7 °F (Jan 7, 5:00 am)48% (Jan 16, 4:00 pm)29.41 "Hg (Jan 4, 5:00 am)
Average26 °F77%30.09 "Hg
* Reported Jan 3 6:00 pm — Jan 18 6:00 pm, Pickering, Weather by CustomWeather, © 2017

Note: Actual official high and low records may vary slightly from our data, if they occured in-between our weather recording intervals... More about our weather records

Advertising

Pickering Weather History for the Previous 24 Hours

Scroll right to see more
 ConditionsComfort  
Time TempWeatherWind HumidityBarometerVisibility
6:00 pm
Wed, Jan 18
37 °FOvercast.7 mph87%29.98 "Hg15 mi
5:00 pm37 °FOvercast.6 mph87%30.01 "Hg15 mi
4:00 pm37 °FOvercast.6 mph81%30.02 "Hg15 mi
3:00 pm37 °FOvercast.7 mph81%30.00 "Hg15 mi
2:00 pm36 °FLow clouds.6 mph87%29.97 "Hg15 mi
1:22 pm36 °FLow clouds.6 mph87%29.96 "Hg15 mi
1:00 pm36 °FOvercast.6 mph87%29.97 "Hg15 mi
12:00 pm36 °FOvercast.6 mph87%29.97 "Hg15 mi
11:00 am36 °FLow clouds.5 mph87%29.98 "Hg10 mi
10:00 am34 °FFog.7 mph93%29.98 "Hg6 mi
9:00 am36 °FFog.5 mph87%29.95 "Hg6 mi
8:00 am34 °FFog.5 mph93%29.93 "Hg5 mi
7:44 am34 °FFog.5 mph100%29.92 "Hg3 mi
7:00 am34 °FFog.3 mph93%29.90 "Hg2 mi
6:00 am34 °FFog.3 mph93%29.90 "Hg1 mi
5:00 am34 °FDrizzle. Fog.2 mph93%29.88 "Hg1 mi
4:00 am34 °FDrizzle. Fog.2 mph93%29.86 "Hg1 mi
3:00 am34 °FDrizzle. Fog.2 mph93%29.85 "Hg1 mi
2:00 am34 °FFog.No wind93%29.84 "Hg2 mi
1:23 am34 °FFog.2 mph93%29.83 "Hg4 mi
1:00 am32 °FDrizzle. Ice fog.2 mph100%29.83 "Hg4 mi
12:38 am32 °FDrizzle. Ice fog.2 mph100%29.82 "Hg3 mi
12:00 am32 °FDrizzle. Ice fog.3 mph100%29.82 "Hg2 mi
11:00 pm
Tue, Jan 17
34 °FDrizzle. Fog.5 mph93%29.83 "Hg2 mi
10:22 pm34 °FDrizzle. Fog.3 mph93%29.82 "Hg2 mi
10:00 pm34 °FLight rain. Fog.2 mph93%29.82 "Hg2 mi
9:27 pm34 °FLight rain. Fog.5 mph93%29.83 "Hg2 mi
9:00 pm34 °FDrizzle. Fog.6 mph93%29.83 "Hg2 mi
8:00 pm34 °FDrizzle. Fog.2 mph93%29.83 "Hg2 mi
7:00 pm32 °FDrizzle. Ice fog.6 mph100%29.83 "Hg2 mi
Weather by CustomWeather, © 2017

See weather overviewHow to use our weather pages